Location: Blankensee
(53.5126°N, 14.3055°E)
Time: 18:59:46
(UTC+00:00)

SJ 16-02 - Pass Details

Date: 08 August 2020
Orbit: 607 x 616 km, 75.0° (Epoch: 20 September)

Event Time Altitude Azimuth Distance (km) Brightness Sun altitude
Exits shadow 00:03:05 10° 123° (ESE) 1,983 3.8 -19.4°
Reaches altitude 10° 00:03:08 10° 123° (ESE) 1,975 3.8 -19.4°
Maximum altitude 00:05:15 13° 94° (E) 1,761 3.8 -19.4°
Drops below altitude 10° 00:07:23 10° 65° (ENE) 1,981 4.5 -19.3°
Sets 00:10:40 0° 39° (NE) 2,890 6.0 -19.2°
